Kingsville NAS, TX

4:09 AM CDT on April 23, 2017 (GMT -0500)
Kingsville Naval Air Station

Weather History for KNQI - August, 2013

Change the Weather History Date:

Thursday, August 8, 2013

  Actual Average Record
Temperature  
Mean Temperature 91 °F -  
Max Temperature 102 °F 95 °F 102 °F (2003)
Min Temperature 80 °F 74 °F 73 °F (2005)
Cooling Degree Days 26    
Growing Degree Days 41 (Base 50)    
Moisture  
Dew Point 75 °F    
Average Humidity 69    
Maximum Humidity 90    
Minimum Humidity 35    
Precipitation  
Precipitation 0.00 in - - ()
Sea Level Pressure  
Sea Level Pressure 29.85 in    
Wind  
Wind Speed 14 mph (SSE)    
Max Wind Speed 22 mph    
Max Gust Speed 30 mph    
Visibility 10 miles    
Events      
Averages and records for this station are not official NWS values.
T = Trace of Precipitation, MM = Missing Value Source: NWS Daily Summary

Daily Weather History Graph

Daily Weather History Graph

Search for Another Location

Airport or City:

Trip Planner

Search our weather history database for the weather conditions in past years. The results will help you decide how hot, cold, wet, or windy it might be!

Date:

Astronomy

Aug. 08, 2013 Rise Set
Actual Time 6:58 AM CDT 8:14 PM CDT
Civil Twilight 6:33 AM CDT 8:39 PM CDT
Nautical Twilight 6:04 AM CDT 9:08 PM CDT
Astronomical Twilight 5:33 AM CDT 9:39 PM CDT
Moon 8:31 AM CDT (8/8) 9:11 PM CDT (8/8)
Length of Visible Light 14h 05m
Length of Day
13h 16m
Waxing Crescent, 3% of the Moon is Illuminated
Aug 8
Waxing Crescent
Aug 14
First Quarter
Aug 20
Full
Aug 28
Last Quarter
Sep 5
New

Hourly Weather History & Observations

Time (CDT) Temp. Heat Index Dew Point Humidity Pressure Visibility Wind Dir Wind Speed Gust Speed Precip Events Conditions
12:30 AM 82.4 °F 90.9 °F 77.0 °F 84% 29.90 in 10.0 mi SSE 13.8 mph - N/A   Mostly Cloudy
12:56 AM 82.9 °F 91.8 °F 77.0 °F 82% 29.89 in 10.0 mi SSE 11.5 mph - N/A   Mostly Cloudy
1:56 AM 82.9 °F 91.8 °F 77.0 °F 82% 29.88 in 10.0 mi SSE 12.7 mph - N/A   Mostly Cloudy
2:56 AM 82.9 °F 91.8 °F 77.0 °F 82% 29.88 in 10.0 mi SSE 12.7 mph - N/A   Overcast
3:24 AM 82.4 °F 90.9 °F 77.0 °F 84% 29.88 in 10.0 mi SSE 16.1 mph - N/A   Overcast
3:56 AM 82.9 °F 90.8 °F 75.9 °F 79% 29.86 in 10.0 mi SSE 13.8 mph - N/A   Mostly Cloudy
4:56 AM 82.0 °F 89.4 °F 75.9 °F 82% 29.85 in 10.0 mi South 11.5 mph - N/A   Clear
5:56 AM 81.0 °F 87.3 °F 75.9 °F 85% 29.84 in 10.0 mi South 10.4 mph - N/A   Partly Cloudy
6:56 AM 80.1 °F 85.8 °F 77.0 °F 90% 29.85 in 10.0 mi SSE 9.2 mph - N/A   Partly Cloudy
7:56 AM 81.0 °F 87.9 °F 77.0 °F 88% 29.85 in 9.0 mi South 10.4 mph - N/A   Partly Cloudy
8:56 AM 84.9 °F 95.3 °F 77.0 °F 77% 29.87 in 10.0 mi South 16.1 mph - N/A   Partly Cloudy
9:56 AM 90.0 °F 100.2 °F 75.0 °F 61% 29.88 in 10.0 mi SSE 15.0 mph 21.9 mph N/A   Scattered Clouds
10:56 AM 93.9 °F 104.0 °F 73.9 °F 52% 29.88 in 10.0 mi SSE 15.0 mph - N/A   Partly Cloudy
11:56 AM 97.0 °F 105.5 °F 72.0 °F 44% 29.88 in 10.0 mi SSE 16.1 mph 20.7 mph N/A   Partly Cloudy
12:56 PM 99.0 °F 106.2 °F 70.0 °F 39% 29.86 in 10.0 mi SSW 9.2 mph 23.0 mph N/A   Clear
1:56 PM 102.0 °F 109.6 °F 70.0 °F 35% 29.84 in 10.0 mi SSE 18.4 mph 26.5 mph N/A   Clear
2:56 PM 100.0 °F 113.6 °F 75.0 °F 45% 29.83 in 10.0 mi ESE 17.3 mph 25.3 mph N/A   Partly Cloudy
3:56 PM 98.1 °F 112.1 °F 75.9 °F 49% 29.82 in 10.0 mi SE 18.4 mph 24.2 mph N/A   Partly Cloudy
4:56 PM 96.1 °F 108.6 °F 75.0 °F 51% 29.80 in 10.0 mi SE 19.6 mph 26.5 mph N/A   Partly Cloudy
5:56 PM 93.0 °F 104.6 °F 75.0 °F 56% 29.80 in 10.0 mi SE 20.7 mph 29.9 mph N/A   Partly Cloudy
6:56 PM 90.0 °F 99.0 °F 73.9 °F 59% 29.80 in 10.0 mi SE 18.4 mph 28.8 mph N/A   Clear
7:56 PM 86.0 °F 96.0 °F 75.9 °F 72% 29.81 in 10.0 mi SE 21.9 mph 27.6 mph N/A   Clear
8:56 PM 84.0 °F 92.6 °F 75.9 °F 76% 29.83 in 10.0 mi SE 20.7 mph 28.8 mph N/A   Clear
9:56 PM 82.9 °F 91.8 °F 77.0 °F 82% 29.85 in 10.0 mi SE 16.1 mph - N/A   Partly Cloudy
10:56 PM 82.9 °F 90.8 °F 75.9 °F 79% 29.87 in 10.0 mi SE 12.7 mph 20.7 mph N/A   Partly Cloudy
11:56 PM 82.0 °F 90.2 °F 77.0 °F 85% 29.89 in 10.0 mi SSE 8.1 mph - N/A   Scattered Clouds